This demonstration page uses our WeatherBlox Daily Observations layout. Learn more.

Left ArrowRight Arrow

Hourly Observations for April 22, 2017

Temp ( °F °C ) Dew Point ( °F °C ) Humidity (%) Winds ( mph kmh ) Pressure ( in mb ) Visibility ( mi km ) Precip ( " mm )
12:59 am 00:59 Mostly Cloudy 71 21.7 62 16.7 73 73 Calm 29.87 1011 10 16 0.00 0.00
1:59 am 01:59 Mostly Cloudy 75 23.9 63 17.2 66 66 SW 13 20 29.85 1011 9 14 0.00 0.00
2:59 am 02:59 Cloudy with Light Rain 71 21.7 64 17.8 79 79 WSW 15 24 29.86 1011 8 13 0.02 0.51
3:59 am 03:59 Cloudy with Heavy Rain 70 21.1 65 18.3 84 84 WSW 12 19 29.87 1011 3 5 0.15 3.81
4:10 am 04:10 Cloudy with Light Rain 70 21.1 64 17.8 82 82 WSW 8 13 29.88 1012 2 3 0.08 2.03
4:17 am 04:17 Cloudy with Light Rain 70 21.1 64 17.8 82 82 WSW 8 13 29.85 1011 2 3 0.09 2.29
4:32 am 04:32 Cloudy 70 21.1 64 17.8 82 82 SW 6 9 29.85 1011 10 16 0.09 2.29
4:59 am 04:59 Cloudy 69 20.6 64 17.8 84 84 SW 5 7 29.85 1011 10 16 0.09 2.29
5:59 am 05:59 Mostly Cloudy with Light Rain 69 20.6 65 18.3 87 87 SW 6 9 29.85 1011 7 11 0.03 0.76
6:59 am 06:59 Mostly Cloudy with Mist and Fog 68 20 65 18.3 90 90 SW 8 13 29.86 1011 6 10 0.00 0.03
7:59 am 07:59 Partly Cloudy with Mist and Fog 70 21.1 66 18.9 87 87 SW 10 17 29.87 1012 6 10 0.00 0.00
8:59 am 08:59 Partly Cloudy 73 22.8 66 18.9 79 79 SW 6 9 29.86 1011 7 11 0.00 0.00
9:59 am 09:59 Partly Cloudy 74 23.3 67 19.4 79 79 SW 9 15 29.86 1011 7 11 0.00 0.00
10:59 am 10:59 Mostly Cloudy 77 25 66 18.9 69 69 W 8 13 29.87 1011 8 13 0.00 0.00
11:59 am 11:59 Mostly Cloudy 77 25 66 18.9 69 69 W 7 11 29.87 1011 8 13 0.00 0.00
1:59 pm 13:59 Mostly Cloudy with Drizzle 69 20.6 61 16.1 76 76 ENE 9 15 29.88 1012 5 8 0.00 0.03
2:59 pm 14:59 Cloudy 68 20 60 15.6 76 76 NE 15 24 29.87 1012 7 11 0.00 0.03
3:06 pm 15:06 Cloudy 67 19.4 60 15.6 79 79 NE 14 22 29.88 1012 7 11 0.00 0.00
3:59 pm 15:59 Cloudy with Drizzle 62 16.7 57 13.9 84 84 ENE 13 20 29.86 1011 5 8 0.00 0.03
4:50 pm 16:50 Cloudy with Drizzle 61 16.1 56 13.3 84 84 NE 15 24 29.88 1012 6 10 0.00 0.03
4:59 pm 16:59 Cloudy with Drizzle 60 15.6 56 13.3 86 86 NE 14 22 29.89 1012 5 8 0.00 0.03
5:59 pm 17:59 Cloudy with Drizzle 59 15 54 12.2 83 83 ENE 18 30 29.89 1012 9 14 0.00 0.03
6:59 pm 18:59 Cloudy with Light Rain 58 14.4 54 12.2 87 87 NNE 16 26 29.92 1013 4 6 0.04 1.02
7:03 pm 19:03 Cloudy with Thunderstorms 58 14.4 55 12.8 90 90 NNE 15 24 29.94 1014 3 4 0.02 0.51
7:25 pm 19:25 Cloudy with Thunderstorms 58 14.4 55 12.8 90 90 NE 14 22 29.94 1014 2 3 0.16 4.06
7:32 pm 19:32 Cloudy with Thunderstorms 58 14.4 55 12.8 90 90 NE 15 24 29.94 1014 3 5 0.17 4.32
7:45 pm 19:45 Cloudy with Light Rain 57 13.9 54 12.2 90 90 NE 14 22 29.94 1014 5 8 0.19 4.83
7:55 pm 19:55 Cloudy with Thunderstorms 57 14 54 12 88 88 NE 16 26 29.94 1014 4 6 0.21 5.33
7:56 pm 19:56 Cloudy with Thunderstorms 57 13.9 54 12.2 90 90 NE 16 26 29.93 1014 4 6 0.21 5.33
7:59 pm 19:59 Cloudy with Thunderstorms 57 13.9 54 12.2 90 90 NE 16 26 29.93 1014 4 6 0.21 5.33
8:13 pm 20:13 Cloudy with Light Rain 57 13.9 54 12.2 90 90 NE 16 26 29.94 1014 8 13 0.01 0.25
8:59 pm 20:59 Mostly Cloudy with Light Rain 57 13.9 53 11.7 87 87 NE 14 22 29.95 1014 10 16 0.02 0.51
9:59 pm 21:59 Cloudy 57 13.9 53 11.7 87 87 NE 15 24 29.98 1015 10 16 0.00 0.03
10:55 pm 22:55 Cloudy 57 14 52 11 82 82 NE 12 19 30.00 1016 10 16 0.00 0.00
10:56 pm 22:56 Cloudy 57 13.9 51 10.6 81 81 NE 9 15 30.00 1016 10 16 0.00 0.00
11:59 pm 23:59 Cloudy with Light Rain 56 13.3 52 11.1 87 87 NE 12 19 29.99 1016 5 8 0.04 1.02

Powered by AerisWeather